Location: Elbingen
(51.6167°N, 10.2333°E)
Time: 13:24:16
(UTC+00:00)

Daily predictions for brighter satellites

Satellite Brightness Start Highest point End
(mag) Time Altitude Azimuth Time Altitude Azimuth Time Altitude Azimuth
MetOp-A 4.4 18:53:58 10° S 18:59:19 76° WSW 19:04:43 10° NNW
CZ-4C R/B 3.6 18:54:15 10° W 18:59:23 45° NNW 19:05:38 10° NE
Cosmos 2227 Rocket 3.3 18:55:40 10° SSE 18:59:55 22° ESE 19:04:08 10° NE
Cosmos 1092 Rocket 4.3 18:53:40 10° NNW 18:59:56 76° W 19:06:06 10° S
BREEZE-M DEB (TANK) 4.0 18:58:06 10° SW 19:01:09 54° SSE 19:08:52 10° E
ATLAS 2AS CENTAUR R/B 3.2 18:53:49 10° SW 19:01:47 83° NW 19:09:32 10° NE
Cosmos 2058 3.0 18:58:29 10° NNW 19:02:43 84° W 19:06:52 10° S
Cosmos 1633 3.4 19:02:07 10° N 19:05:23 32° ENE 19:08:38 10° SE
Cosmos 2297 Rocket 2.9 19:01:31 10° SSE 19:06:22 30° ESE 19:11:14 10° NE
Lacrosse 5 rocket 2.6 19:03:54 10° WNW 19:07:48 39° N 19:11:56 10° ENE
Cosmos 405 3.8 19:04:53 10° SSW 19:08:17 55° WNW 19:11:45 10° N
Genesis I 3.3 19:09:34 10° NW 19:13:35 73° NE 19:17:36 10° SE
Resurs 01 Rocket 2.1 19:09:30 10° SE 19:13:45 45° ENE 19:18:02 10° N
Cosmos 2333 Rocket 4.0 19:10:15 10° NW 19:15:15 31° WSW 19:20:12 10° SSW
Resurs 1-3 3.6 19:11:05 10° SSE 19:15:28 73° ENE 19:19:52 10° N
Cosmos 2219 3.9 19:10:35 10° SSE 19:15:29 32° ESE 19:20:25 10° NE
BREEZE-M DEB (TANK) 3.7 19:12:20 10° WSW 19:16:14 68° SSE 19:29:56 10° E
CZ-2C R/B 3.9 19:14:27 10° N 19:19:24 45° WNW 19:24:23 10° SW
SJ-6B 3.4 19:15:47 10° S 19:19:27 57° W 19:23:13 10° NNW
ERS-2 3.2 19:18:15 10° N 19:21:49 50° WNW 19:25:20 10° SW
Cosmos 2084 Rocket 4.4 19:20:17 10° S 19:23:26 23° ESE 19:26:39 10° ENE
FALCON 9 DEB 4.2 19:21:19 10° SSW 19:23:39 20° SE 19:26:00 10° E
Cosmos 389 Rocket 2.5 19:20:34 10° S 19:24:03 59° E 19:27:36 10° NNE
Ariane Rocket 3.1 19:20:50 10° SSE 19:25:53 80° WSW 19:30:59 10° NNW
Cosmos 614 Rocket 3.9 19:22:36 10° SSW 19:27:43 76° ESE 19:32:50 10° NNE
Terra 3.7 19:25:31 10° E 19:28:26 16° NE 19:31:22 10° NNE
Cosmos 2251 Rocket 3.7 19:24:09 10° SSW 19:29:31 81° WNW 19:34:53 10° NNE
ATLAS 3B R/B 3.8 19:23:29 10° NW 19:29:59 42° WSW 19:36:44 10° S
FALCON 9 DEB 3.0 19:26:35 10° WSW 19:30:01 81° SSE 19:33:28 10° ENE
Cosmos 2279 Rocket 4.0 19:28:14 10° S 19:34:23 77° E 19:40:37 10° NNE
Cosmos 1980 4.1 19:32:19 10° NW 19:37:57 64° WSW 19:43:34 10° SSE
SPOT 5 4.2 19:34:55 12° ESE 19:38:13 24° ENE 19:42:08 10° N
SPOT 1/Viking Rocket 4.0 19:33:39 12° SE 19:38:17 47° ENE 19:43:16 10° N
SL-16 R/B 2.5 19:33:05 10° NNW 19:38:43 56° NE 19:43:25 15° SE
Cosmos 2151 3.0 19:35:31 10° N 19:39:51 72° ENE 19:44:08 10° SSE
Cosmos-2242 3.5 19:36:25 10° SSE 19:40:26 40° E 19:44:28 10° NNE
USA 215 3.4 19:34:16 10° ESE 19:40:42 78° NNE 19:47:17 10° WNW
FALCON 9 DEB 3.9 19:42:49 10° SSW 19:45:23 25° SE 19:46:41 19° ESE
SPOT 3 Rocket 3.5 19:40:57 10° SSE 19:46:09 83° ENE 19:51:21 10° NNW
Cosmos 1455 4.3 19:45:08 10° SW 19:48:27 29° WNW 19:51:46 10° N
COSMOS 2455 3.6 19:44:30 10° S 19:49:36 30° ESE 19:54:44 10° NE
SL-4 R/B 2.9 19:48:24 10° SSW 19:52:22 34° SE 19:56:35 10° E
ATLAS 5 CENTAUR R/B 4.1 19:48:56 10° WNW 19:52:30 22° N 19:56:32 10° NE
Cosmos 2266 Rocket 4.0 19:50:07 10° N 19:56:33 79° E 20:02:36 11° SSE
ERS-1 Rocket 3.8 19:53:53 17° ESE 19:57:10 36° ENE 20:01:45 10° N
IGS 5A 3.5 19:54:20 12° SSE 19:58:10 84° WSW 20:02:21 10° NNW
OBJECT-B 3.5 19:57:08 10° SW 19:59:29 18° W 20:01:52 10° NW
Landsat 7 3.8 19:55:13 12° SSE 19:59:34 89° ENE 20:04:22 10° NNW
Cosmos 1943 4.5 19:59:21 10° NNW 20:04:17 30° NE 20:08:18 14° E
Cosmos 2221 4.0 20:05:05 18° ESE 20:05:59 19° E 20:09:02 10° NE
ARIANE 5 R/B 2.8 20:04:04 21° SE 20:06:51 55° ENE 20:11:09 10° N
Cosmos 2344 3.8 19:59:49 10° SW 20:07:14 77° NW 20:15:35 10° NE
USA 245 2.8 20:05:50 24° SSE 20:07:42 64° ENE 20:10:36 10° N
Cosmos 407 Rocket 3.4 20:03:09 10° SSW 20:08:17 89° ESE 20:13:32 10° NNE
Meteor 2-3 Rocket 3.9 20:06:49 10° NNW 20:12:36 77° W 20:17:47 13° S
Orbus 7S? 4.0 20:09:44 10° WSW 20:13:00 69° NNW 20:19:56 10° ENE
Cosmos 1023 Rocket 4.4 20:08:16 10° SSW 20:13:21 90° SE 20:18:30 10° NNE
MetOp-B 4.2 20:09:16 14° S 20:14:00 78° WSW 20:19:24 10° NNW
Cosmos 44 Rocket 3.9 20:15:13 10° S 20:19:54 38° ESE 20:24:43 10° NE
Meteor 1-27 4.3 20:14:24 10° S 20:20:07 69° E 20:25:57 10° NNE
Cosmos 1140 Rocket 3.5 20:16:26 10° SSW 20:21:34 82° WNW 20:26:45 10° NNE
CZ-2C R/B 3.5 20:18:58 10° NNE 20:23:26 82° ESE 20:27:42 11° SSW
Cosmos 2237 Rocket 3.6 20:20:34 10° NW 20:25:29 32° WSW 20:30:23 10° SSW
Cosmos 1954 Rocket 3.9 20:20:34 10° S 20:25:39 63° ESE 20:30:47 10° NNE
Timation 2 Rocket 4.0 20:22:06 10° SSW 20:28:40 85° ESE 20:34:57 10° NNE
Cosmos 1500 Rocket 4.5 20:28:27 10° N 20:32:34 34° ENE 20:33:58 28° ESE
Cosmos 1766 Rocket 3.6 20:29:32 10° NNW 20:33:54 78° W 20:36:22 25° S
USA 229 DEB 4.1 20:27:18 10° NW 20:34:27 67° NE 20:39:35 22° ESE
USA 229 4.1 20:27:23 10° NW 20:34:33 66° NE 20:39:41 22° ESE
Cosmos 2263 Rocket 3.4 20:34:38 22° ESE 20:34:48 22° ESE 20:38:56 10° NE
Spot 2 Rocket 3.5 20:32:07 23° S 20:35:22 81° WSW 20:40:29 10° NNW
CARTOSAT-1 3.5 20:33:27 29° SSE 20:35:37 88° E 20:39:58 10° NNW
Aureole 1 Rocket 4.5 20:35:06 26° ESE 20:35:41 27° ESE 20:39:35 10° NE
BREEZE M DEB (TANK) 2.3 20:29:29 10° WSW 20:35:47 57° S 20:36:34 42° ESE
FALCON 9 DEB 3.4 20:39:22 10° SW 20:41:38 42° SSW 20:41:38 42° SSW
Okean 3 Rocket 3.9 20:38:33 10° NNW 20:43:03 65° W 20:45:38 24° S
Cosmos 2227 Rocket 2.4 20:37:42 10° SW 20:43:22 76° WNW 20:49:04 10° NNE
Cosmos 2082 3.6 20:37:56 10° SSW 20:43:29 66° ESE 20:49:04 10° NE
H-2A R/B 4.1 20:40:19 10° NNE 20:44:15 36° E 20:44:43 35° ESE
FALCON 9 DEB 3.0 20:43:58 10° WSW 20:46:28 54° SW 20:46:28 54° SW
Lacrosse 5 rocket 2.0 20:43:21 10° WNW 20:47:33 54° NNE 20:49:58 24° E
Cosmos 468 Rocket 4.0 20:44:14 10° NNW 20:49:22 78° WSW 20:51:46 32° SSE
CZ-4C R/B 4.3 20:44:18 10° WNW 20:49:29 29° N 20:55:35 10° ENE
Cosmos 2297 Rocket 2.9 20:44:34 10° SW 20:50:07 57° NW 20:55:44 10° NNE
Cosmos 1869 3.4 20:47:58 24° SSW 20:50:18 73° W 20:54:16 10° N
Resurs 01 Rocket 3.6 20:46:46 10° SSW 20:50:27 25° W 20:54:09 10° NW
Cosmos 1553 Rocket 4.3 20:48:26 30° SE 20:50:53 45° E 20:56:40 10° NNE
Meteor 1-4 Rocket 2.6 20:50:30 32° SSW 20:51:57 72° WNW 20:55:31 10° N
NOSS 3-1 (A) 4.1 20:45:14 10° NW 20:52:25 74° NE 20:57:37 26° ESE
Cosmos 1603 4.0 20:47:44 10° NNW 20:53:25 57° NE 20:55:59 31° ESE
ATLAS 2AS CENTAUR R/B 4.3 20:46:26 10° W 20:53:46 40° NNW 21:00:50 10° NE
Cosmos 841 Rocket 3.7 20:49:04 10° NNW 20:54:15 61° ENE 20:56:15 36° SE
FALCON 9 DEB 3.5 20:55:59 10° WSW 20:58:12 44° WSW 20:58:12 44° WSW
Cosmos 2219 3.9 20:53:54 10° SW 20:59:24 54° NW 21:04:57 10° NNE
CZ-4B DEB 4.1 20:59:51 77° ESE 20:59:58 79° ENE 21:03:13 10° N
Cosmos 1763 Rocket 3.6 20:57:10 10° NNW 21:02:12 64° WSW 21:04:17 34° S
Cosmos 2084 Rocket 3.8 20:58:37 10° WSW 21:02:34 61° NW 21:06:39 10° NE
Terra 1.7 21:03:52 41° SSE 21:05:32 89° ENE 21:10:21 10° NNW
FALCON 9 DEB 3.3 21:03:36 10° W 21:07:02 68° N 21:07:41 52° ENE
NOSS 2-1 (E) 4.3 21:10:54 29° ENE 21:10:54 29° ENE 21:12:52 10° NE
Cosmos 1814 Rocket 4.3 21:04:44 10° NNW 21:10:01 59° ENE 21:11:45 39° ESE
Cosmos 540 Rocket 3.4 21:04:52 10° NNW 21:10:02 86° ENE 21:11:41 44° SSE
Cosmos 921 Rocket 3.2 21:07:05 10° NNW 21:11:30 62° ENE 21:12:21 50° ESE
SPOT 5 3.2 21:14:08 34° SSW 21:15:56 56° W 21:20:45 10° NNW
NOSS 3-1 (C) 4.1 21:08:56 10° NW 21:16:13 69° SW 21:20:23 33° SSE
Meteor 2-2 Rocket 4.2 21:15:41 31° S 21:18:36 87° E 21:24:19 10° NNE
Cosmos 1842 Rocket 3.5 21:20:26 46° SSW 21:21:45 83° WNW 21:26:15 10° N
SL-16 R/B 3.5 21:17:37 10° NW 21:22:34 31° WSW 21:25:19 21° SSW
Cosmos 1174 4.1 21:18:08 10° NW 21:22:47 58° NE 21:23:25 51° E
USA 215 3.6 21:21:35 34° S 21:24:01 49° SW 21:30:21 10° WNW
Cosmos 1437 Rocket 4.0 21:29:53 28° ENE 21:29:53 28° ENE 21:32:22 10° NNE
SL-08 ROCKET BODY 4.4 21:23:09 10° NNW 21:29:13 77° W 21:31:37 38° S
SL-4 R/B 2.1 21:27:11 10° WSW 21:31:43 79° SSE 21:33:32 38° E
COSMOS 2455 3.1 21:29:09 10° SW 21:35:08 67° NW 21:41:11 10° NE
ERS-1 Rocket 4.0 21:33:52 27° SW 21:35:57 38° W 21:40:40 10° NNW
ATLAS 5 CENTAUR R/B 3.9 21:34:27 10° NW 21:38:40 26° NNE 21:43:28 10° ENE
Cosmos 1862 4.4 21:37:08 10° NNW 21:40:46 35° W 21:41:30 32° WSW
Sich 1 3.0 21:37:04 10° N 21:41:20 66° ENE 21:41:28 65° E
Cosmos 1805 Rocket 3.3 21:37:17 10° N 21:41:40 85° E 21:41:58 77° SSE
Cosmos 2227 4.2 21:40:44 50° SSE 21:41:49 59° ESE 21:47:29 10° NE
Cosmos 2221 3.1 21:41:54 37° SW 21:43:10 51° WNW 21:47:22 10° N
Meteor 1-20 Rocket 4.3 21:40:48 10° N 21:46:37 71° ENE 21:48:01 51° SE
Cosmos 1943 3.2 21:43:13 10° NW 21:48:49 69° WSW 21:50:06 52° S
Cosmos 1745 Rocket 4.0 21:44:58 10° NNW 21:51:19 76° W 21:53:25 44° S
SeaSat 1 3.2 21:47:20 10° NE 21:51:18 37° E 21:51:18 37° E
Cosmos 1570 Rocket 4.1 21:47:00 10° NNW 21:52:17 68° WSW 21:53:15 55° SSW
Cosmos 1743 Rocket 4.2 21:48:15 10° NNW 21:52:24 44° W 21:53:02 41° WSW
NOSS 2-1 (C) 3.7 21:56:12 49° NW 21:56:19 49° NW 21:59:53 10° NE
Cosmos 1709 Rocket 3.9 21:50:18 10° N 21:56:33 75° ENE 21:58:10 51° SSE
Iridium 4 Rocket 4.1 21:58:16 39° E 21:58:42 40° E 22:03:45 10° NNE
Spot 4 3.8 22:00:15 64° ESE 22:00:48 72° ENE 22:05:41 10° N
Cosmos 44 Rocket 4.3 21:56:24 10° WSW 22:01:23 50° NW 22:06:31 10° NE
Cosmos 1633 Rocket 3.3 21:57:59 10° N 22:02:12 56° ENE 22:02:12 56° ENE
NOSS 2-1 (D) 4.0 22:02:34 42° WNW 22:02:56 44° NW 22:06:28 10° NE
Cosmos 1606 3.3 22:06:56 51° WNW 22:06:56 51° WNW 22:10:28 10° N
S3M 4.1 22:05:24 42° SSW 22:07:47 78° WNW 22:14:13 10° N
Cosmos 883 Rocket 4.4 22:06:44 53° SSE 22:08:14 74° E 22:14:31 10° NNE
Cosmos 1500 4.3 22:08:44 10° N 22:11:44 36° NE 22:11:44 36° NE
Cosmos 1666 Rocket 3.5 22:08:32 10° N 22:12:59 84° ENE 22:12:59 84° ENE
Cosmos 2263 Rocket 2.2 22:16:16 43° SW 22:18:08 76° WNW 22:23:46 10° NNE
Aureole 1 Rocket 4.0 22:17:34 29° WSW 22:19:58 51° WNW 22:24:12 10° NNE
Cosmos 1328 Rocket 4.2 22:22:33 46° ENE 22:22:33 46° ENE 22:26:18 10° NNE
Cosmos 1242 Rocket 3.9 22:23:55 34° NE 22:23:55 34° NE 22:26:12 10° NNE
Cosmos 968 Rocket 3.9 22:22:53 49° E 22:22:53 49° E 22:27:42 10° NNE
NOSS 2-2 (D) 4.3 22:18:49 10° NW 22:23:51 77° NE 22:25:44 47° ESE
USA 229 DEB 4.4 22:18:29 10° NW 22:25:16 43° WSW 22:27:01 38° SSW
USA 229 4.4 22:18:34 10° NW 22:25:23 43° WSW 22:27:08 38° SSW
Lacrosse 5 rocket 2.4 22:22:31 10° WNW 22:25:34 39° W 22:25:34 39° W
Cosmos 1782 3.5 22:28:48 48° NE 22:28:48 48° NE 22:31:57 10° NNE
COBE Rocket 4.3 22:29:10 48° E 22:29:34 49° ENE 22:34:19 10° N
Cosmos 1844 Rocket 3.4 22:30:56 36° E 22:30:56 36° E 22:35:31 10° NE
SL-24 DEB 4.3 22:32:22 66° W 22:32:26 67° W 22:37:03 10° N
Thor Agena Rocket 4.5 22:27:56 10° NNE 22:32:22 33° E 22:32:22 33° E
Cosmos 1151 Rocket 3.2 22:34:17 65° NE 22:34:17 65° NE 22:38:06 10° NNE
ALOS 2 2.6 22:35:37 78° N 22:35:37 78° N 22:39:47 10° NNW
CZ-4C R/B 3.9 22:33:37 10° NW 22:39:43 40° NNE 22:46:58 10° E
Terra 4.1 22:42:44 13° WSW 22:43:59 14° W 22:46:30 10° NW
Cosmos 1933 4.1 22:45:09 48° WNW 22:45:09 48° WNW 22:48:51 10° N
ATLAS 2AS CENTAUR R/B 4.5 22:39:46 10° WNW 22:46:41 34° N 22:53:15 10° ENE
Cosmos 2082 Rocket 4.3 22:46:07 10° NNW 22:50:28 22° NE 22:54:48 10° E
Cosmos 836 Rocket 4.4 22:47:16 10° NNW 22:52:35 71° WSW 22:52:46 71° SW
Cosmos 1833 Rocket 4.1 22:47:43 10° NNW 22:52:50 33° NE 22:56:05 19° E
Cosmos 1486 Rocket 3.9 22:57:26 76° SE 22:57:33 76° ESE 23:02:55 10° NNE
Meteor 1-5 Rocket 4.0 22:55:12 10° NNW 23:00:57 89° ENE 23:01:31 73° SSE
Cosmos 2154 Rocket 4.2 22:56:23 10° N 23:02:44 64° ENE 23:04:10 51° SE
Meteor 1-14 Rocket 4.4 22:57:51 10° NNW 23:03:48 66° W 23:04:37 59° SW
USA 290 4.3 23:04:44 10° NNW 23:06:25 27° NNW 23:06:25 27° NNW
SL-4 R/B 3.6 23:06:47 10° W 23:09:09 30° W 23:09:09 30° W
Meteor 2-6 Rocket 4.0 23:11:23 70° ESE 23:11:39 72° E 23:17:03 10° NNE
Cosmos 2184 Rocket 3.9 23:07:30 10° NNW 23:13:52 80° W 23:14:58 62° SSW
NOSS 2-2 (C) 4.4 23:09:05 10° NW 23:14:16 61° SW 23:14:35 60° SW
Cosmos 1869 Rocket 4.1 23:11:55 10° N 23:15:55 53° ENE 23:15:55 53° ENE
SJ 16-02 3.7 23:17:22 14° E 23:17:22 14° E 23:19:11 10° ENE
Cosmos 1515 Rocket 3.7 23:19:41 71° NNW 23:19:41 71° NNW 23:23:45 10° N
Cosmos 2278 Rocket 4.0 23:19:30 18° ESE 23:19:39 18° E 23:23:24 10° ENE
Cosmos 1666 3.8 23:17:20 10° NNW 23:20:00 43° NNW 23:20:00 43° NNW
USA 305 4.1 23:25:52 34° ENE 23:25:52 34° ENE 23:28:22 10° ENE
ATLAS 5 CENTAUR R/B 2.5 23:18:55 10° NW 23:24:11 63° NE 23:27:06 31° ESE
Cosmos 783 Rocket 4.4 23:20:24 10° NNW 23:25:44 80° WSW 23:25:50 79° SW
Cosmos 2341 Rocket 4.5 23:22:51 10° N 23:29:06 55° ENE 23:31:01 41° SE
Cosmos 1295 Rocket 4.4 23:23:09 10° N 23:29:27 82° E 23:30:44 59° SSE
SeaSat 1 3.4 23:24:52 10° NNE 23:29:32 43° NW 23:31:04 33° W
Cosmos 1241 Rocket 4.5 23:33:03 60° S 23:34:13 75° SE 23:40:50 10° NE
Cosmos 1544 4.4 23:33:32 10° N 23:36:05 36° NNE 23:36:05 36° NNE
Nimbus 7 Rocket 4.5 23:32:51 10° NNE 23:38:42 69° WNW 23:39:53 55° SW
Cosmos 2074 Rocket 4.3 23:34:08 10° NNW 23:40:11 53° W 23:41:12 48° WSW
USA 306 3.6 23:43:12 49° ENE 23:43:12 49° ENE 23:46:25 10° ENE
Cosmos 1844 3.6 23:41:40 68° SW 23:42:27 87° WNW 23:48:12 10° NNE
COSMOS 2406 3.5 23:37:30 10° NNW 23:43:10 64° NE 23:44:55 43° ESE
USA 281 3.1 23:43:08 54° SSE 23:44:47 81° WSW 23:51:26 10° NNW
Cosmos 1503 Rocket 3.9 23:44:44 74° WSW 23:45:05 78° WNW 23:50:18 10° NNE
Cosmos 1812 4.0 23:48:00 36° NW 23:48:00 36° NW 23:50:58 10° N
Cosmos 962 Rocket 4.4 23:45:02 10° N 23:51:16 83° E 23:52:36 58° SSE
Gbstr 26 Del rocket 4.1 23:53:47 49° SE 23:53:47 49° SE 23:58:41 10° ENE
Cosmos 1238 Rocket 4.4 23:46:59 10° N 23:53:21 60° ENE 23:55:40 40° SE
